ARIANE 2 DEB, 33581

Orbit data source: Space-Track

ARIANE 2 DEB, 33581 is space debris in HEO originally from a launch on Fri, 27 Jan 1989 UTC launched from the French Guiana (FRGUI). Debris objects in space refer to the collection of defunct objects orbiting the Earth. Examples of debris include non-operational satellites, rocket bodies, and fragments generated from explosions, collisions, or faulty payload assembly.

Loading next visibility...
Identifier
33581, 1989-006BZ
Orbit
HEO
Country
Flag of FRFR
Related business
Manufacturer
EADS/LV
Mission
Spacecraft
Bus & Motor
Unknown
Mass
Unknown
Launch date (UTC)
1989-01-27 (37 years ago)
Launch vehicle
Unknown
Launch site
French Guiana (FRGUI)
Object type
Payload
Rocket body
Debris
Shape & HBR
Unknown shape, 0.2 m
Radar Cross Section
Medium (>0.1 m² and <1 m²)

Expand to show TLE details & history
Last TLE update: 3 days ago

TLE from 3 days ago
0 ARIANE 2 DEB
1 33581U 89006BZ  26170.60534953  .00000664  00000-0  67987-2 0  9999
2 33581   8.2827 111.0320 7136701   1.3451 271.2609  2.31099615 42623
Epoch: 2026-06-19T14:31Z
TLE epoch observation values (Epoch: 2026-06-19T14:31:42.199Z)
Latitude
-3.66999°
Longitude
-168.64977°
Altitude
27,175.251 km
Speed
2.695 km/s
True Right ascension
21h 08m 25s
True Declination
-3° 39' 55"
Sunlit
Object was in daylight at epoch
Visualization orbit readout
Latitude
Unknown
Longitude
Unknown
Altitude
Unknown
Speed
Unknown
Apparent Right ascension
Unknown
Apparent Declination
Unknown
Sunlit
N/A
Visualization observer readout
Local Sidereal Time
23:18:25
Azimuth
Unknown
Elevation
Unknown
Doppler factor
Unknown
Orbital elements
Apogee altitude
35,043.015 km
Perigee altitude
542.748 km
Semi-major axis
24,171.019 km
Eccentricity
0.71367
Inclination
8.2827°
RAAN
111.032°
Arg. of periapsis
1.3451°
True anomaly
205.01488°
Mean anomaly
271.2609°
Eccentric anomaly
236.97654°
Mean motion
0.57756 °/min
Orbital period
623.31 mins
BSTAR
0.0067987
Loading maneuver chart data...
Computing Atmospheric mass density...
Loading historical data...
Loading historical data...
Loading historical data...
Loading historical data...
Loading historical data...
Loading historical data...
Loading historical data...

Documentation

Showing up to 5 results
|